This demonstration page uses our WeatherBlox Daily Observations layout. Learn more.

Left ArrowRight Arrow

36.19886, -115.1175

Hourly Observations for November 10, 2015

Temp ( °F °C ) Dew Point ( °F °C ) Humidity (%) Winds ( mph kmh ) Pressure ( in mb ) Visibility ( mi km ) Precip ( " mm )
12:53 am 00:53 Clear 54 12.2 32 0 43 43 SSW 9 15 29.87 1012 10 16 0.00 0.00
1:53 am 01:53 Clear 54 12.2 33 0.6 45 45 SSW 14 22 29.87 1012 10 16 0.00 0.00
2:53 am 02:53 Clear 53 11.7 34 1.1 48 48 SW 14 22 29.85 1011 10 16 0.00 0.00
3:53 am 03:53 Clear 53 11.7 31 -0.6 43 43 WSW 16 26 29.85 1011 10 16 0.00 0.00
4:53 am 04:53 Clear 52 11.1 29 -1.7 41 41 WSW 24 39 29.84 1011 10 16 0.00 0.00
5:53 am 05:53 Clear 51 10.6 30 -1.1 44 44 W 17 28 29.88 1012 10 16 0.00 0.00
6:53 am 06:53 Sunny 51 10.6 29 -1.7 43 43 NW 18 30 29.91 1013 10 16 0.00 0.00
7:09 am 07:09 Mostly Sunny 49 9.4 34 1.1 56 56 NNW 30 48 29.88 1012 10 16 0.00 0.00
7:53 am 07:53 Sunny 47 8.3 35 1.7 63 63 NNW 32 52 29.94 1014 10 16 0.00 0.00
8:53 am 08:53 Mostly Cloudy 49 9.4 33 0.6 55 55 NW 24 39 29.96 1015 10 16 0.00 0.00
9:53 am 09:53 Cloudy 49 9.4 33 0.6 55 55 N 10 17 29.98 1015 10 16 0.00 0.00
10:53 am 10:53 Sunny 51 10.6 33 0.6 50 50 NNW 8 13 29.98 1015 10 16 0.00 0.00
11:53 am 11:53 Mostly Sunny 55 12.8 30 -1.1 38 38 VRB 6 9 29.95 1014 10 16 0.00 0.00
12:53 pm 12:53 Partly Cloudy 58 14.4 23 -5 26 26 NW 16 26 29.94 1014 10 16 0.00 0.00
1:53 pm 13:53 Mostly Cloudy 60 15.6 20 -6.7 21 21 NW 21 33 29.95 1014 10 16 0.00 0.00
2:53 pm 14:53 Mostly Sunny 58 14.4 26 -3.3 29 29 NNW 22 35 29.96 1014 10 16 0.00 0.00
3:53 pm 15:53 Mostly Sunny 56 13.3 30 -1.1 37 37 NNW 29 46 30.01 1016 10 16 0.00 0.00
4:53 pm 16:53 Partly Cloudy 53 11.7 33 0.6 47 47 N 16 26 30.05 1018 10 16 0.00 0.03
5:53 pm 17:53 Clear 52 11.1 33 0.6 49 49 N 14 22 30.09 1019 10 16 0.00 0.00
6:53 pm 18:53 Clear 53 11.7 30 -1.1 41 41 NNW 18 30 30.11 1020 10 16 0.00 0.00
7:53 pm 19:53 Clear 52 11.1 28 -2.2 40 40 N 13 20 30.15 1021 10 16 0.00 0.00
8:53 pm 20:53 Clear 51 10.6 26 -3.3 38 38 N 14 22 30.19 1022 10 16 0.00 0.00
9:53 pm 21:53 Clear 51 10.6 23 -5 33 33 N 13 20 30.22 1024 10 16 0.00 0.00
10:53 pm 22:53 Clear 50 10 22 -5.6 33 33 NNW 15 24 30.24 1024 10 16 0.00 0.00
11:53 pm 23:53 Clear 50 10 23 -5 35 35 NNW 14 22 30.24 1024 10 16 0.00 0.00

Powered by AerisWeather